Regional Weather Roundup
Issued by NWS

Home | Current Version | Previous Version | Text Only | Print | Product List | Glossary Off
Versions: 1 2 3 4 5 6 7 8 9 10 11 12 13 14 15 16 17 18 19 20 21 22 23 24 25 26 27 28 29 30 31 32 33 34 35 36 37 38 39 40 41 42 43 44 45 46 47 48 49 50

000
ASUS43 KBIS 242010
RWRND

NORTH DAKOTA REGIONAL WEATHER ROUNDUP
NATIONAL WEATHER SERVICE BISMARCK ND
300 PM CDT SUN SEP 24 2017

NOTE: "FAIR" INDICATES FEW OR NO CLOUDS BELOW 12,000 FEET WITH NO
SIGNIFICANT WEATHER AND/OR OBSTRUCTIONS TO VISIBILITY.


NDZ001>003-009>011-017-242100-
NORTHWEST NORTH DAKOTA

CITY           SKY/WX    TMP DP  RH WIND       PRES   REMARKS
WILLISTON      CLOUDY    48  41  76 N9        30.11S
MINOT          CLOUDY    52  46  80 NW12      30.04S
MINOT AFB      CLOUDY    50  44  81 N10       30.03S
$$

NDZ018>021-031>035-040>046-242100-
SOUTHWEST NORTH DAKOTA

CITY           SKY/WX    TMP DP  RH WIND       PRES   REMARKS
BISMARCK       CLOUDY    50  48  93 N14       30.03R
DICKINSON      CLOUDY    47  42  83 N8        30.06S
GARRISON         N/A     48  44  86 N13       30.05R
HETTINGER ARPT CLOUDY    47  43  86 N14       30.07F
$$

NDZ004>008-012>016-024-026-027-054-242100-
NORTHEAST NORTH DAKOTA

CITY           SKY/WX    TMP DP  RH WIND       PRES   REMARKS
GRAND FORKS    LGT RAIN  53  53 100 N15       29.87S
GRND FRKS AFB  LGT RAIN  54  54 100 N13G20    29.91R
DEVILS LAKE    CLOUDY    49  47  93 N14       29.97R
$$

NDZ022-023-025-028>030-036>039-047>053-242100-
SOUTHEAST NORTH DAKOTA

CITY           SKY/WX    TMP DP  RH WIND       PRES   REMARKS
FARGO          LGT RAIN  56  55  97 N13       29.86R
JAMESTOWN      CLOUDY    51  49  92 NW16G23   29.95R
$$





USA.gov is the U.S. government's official web portal to all federal, state and local government web resources and services.